TimeEST,TemperatureF,Dew PointF,Humidity,Sea Level PressureIn,VisibilityMPH,Wind Direction,Wind SpeedMPH,Gust SpeedMPH,PrecipitationIn,Events,Conditions,WindDirDegrees,DateUTC
12:08 AM,28.4,21.2,74,30.15,10.0,NW,13.8,24.2,N/A,,Overcast,310,2013-02-09 05:08:00
12:51 AM,28.4,21.2,74,30.16,10.0,NW,12.7,-,N/A,,Overcast,310,2013-02-09 05:51:00
1:51 AM,27.0,18.0,69,30.25,10.0,NW,12.7,19.6,N/A,,Overcast,310,2013-02-09 06:51:00
2:51 AM,26.1,18.0,71,30.27,10.0,NW,12.7,17.3,N/A,,Overcast,320,2013-02-09 07:51:00
3:51 AM,24.1,16.0,71,30.28,10.0,NW,11.5,-,N/A,,Overcast,320,2013-02-09 08:51:00
4:51 AM,23.0,15.1,72,30.30,10.0,NNW,12.7,-,N/A,,Overcast,330,2013-02-09 09:51:00
5:51 AM,23.0,14.0,68,30.32,10.0,NW,16.1,23.0,N/A,,Overcast,310,2013-02-09 10:51:00
6:51 AM,23.0,15.1,72,30.34,10.0,NNW,13.8,21.9,N/A,,Overcast,330,2013-02-09 11:51:00
7:51 AM,23.0,16.0,74,30.36,10.0,NNW,10.4,-,N/A,,Overcast,340,2013-02-09 12:51:00
8:51 AM,23.0,16.0,74,30.38,10.0,NW,10.4,-,N/A,,Overcast,310,2013-02-09 13:51:00
9:34 AM,24.8,15.8,69,30.27,10.0,NNW,9.2,-,N/A,,Scattered Clouds,330,2013-02-09 14:34:00
9:51 AM,25.0,15.1,66,30.38,10.0,WNW,8.1,-,N/A,,Partly Cloudy,300,2013-02-09 14:51:00
10:51 AM,28.0,16.0,61,30.38,10.0,NNW,9.2,-,N/A,,Clear,330,2013-02-09 15:51:00
11:51 AM,30.0,16.0,56,30.38,10.0,North,8.1,-,N/A,,Clear,350,2013-02-09 16:51:00
12:51 PM,33.1,16.0,50,30.35,10.0,West,6.9,-,N/A,,Clear,280,2013-02-09 17:51:00
1:51 PM,36.0,16.0,44,30.34,10.0,Calm,Calm,-,N/A,,Clear,0,2013-02-09 18:51:00
2:51 PM,39.0,15.1,38,30.35,10.0,WNW,8.1,-,N/A,,Clear,290,2013-02-09 19:51:00
3:51 PM,39.0,10.9,32,30.36,10.0,NW,6.9,-,N/A,,Clear,320,2013-02-09 20:51:00
4:51 PM,39.9,12.0,32,30.35,10.0,North,3.5,-,N/A,,Clear,350,2013-02-09 21:51:00
5:51 PM,36.0,14.0,41,30.37,10.0,NNE,4.6,-,N/A,,Clear,30,2013-02-09 22:51:00
6:51 PM,32.0,14.0,48,30.38,10.0,ENE,3.5,-,N/A,,Clear,70,2013-02-09 23:51:00
7:51 PM,28.9,15.1,56,30.40,10.0,SSE,3.5,-,N/A,,Clear,160,2013-02-10 00:51:00
8:51 PM,28.9,14.0,54,30.39,10.0,SSE,5.8,-,N/A,,Clear,150,2013-02-10 01:51:00
9:51 PM,28.9,14.0,54,30.38,10.0,SE,4.6,-,N/A,,Clear,140,2013-02-10 02:51:00
10:51 PM,32.0,12.0,44,30.35,10.0,SE,3.5,-,N/A,,Clear,130,2013-02-10 03:51:00
11:51 PM,30.9,12.9,47,30.35,10.0,SSE,8.1,-,N/A,,Clear,160,2013-02-10 04:51:00